owner,sensor,date,latitude,longitude,vertical_datum,sea_water_practical_salinity,qcFlag 
SCCF RECON,ioos:station:SCCF:12:1,2008-04-03T17:00:00Z,26.4966,-82.1479,2.32,37.28,1111122 
SCCF RECON,ioos:station:SCCF:12:1,2008-04-03T18:00:00Z,26.4966,-82.1479,2.271,37.05,1111122 
SCCF RECON,ioos:station:SCCF:12:1,2008-04-03T19:00:00Z,26.4966,-82.1479,2.165,37.04,1111122 
SCCF RECON,ioos:station:SCCF:12:1,2008-04-03T20:00:00Z,26.4966,-82.1479,2.042,37.06,1111122 
SCCF RECON,ioos:station:SCCF:12:1,2008-04-03T21:00:00Z,26.4966,-82.1479,1.931,37.06,1111122 
SCCF RECON,ioos:station:SCCF:12:1,2008-04-03T22:00:00Z,26.4966,-82.1479,1.868,37.06,1111122 
SCCF RECON,ioos:station:SCCF:12:1,2008-04-03T23:00:00Z,26.4966,-82.1479,1.83,37.06,1111122 
SCCF RECON,ioos:station:SCCF:12:1,2008-04-04T00:00:00Z,26.4966,-82.1479,1.88,37.06,1111122 
SCCF RECON,ioos:station:SCCF:12:1,2008-04-04T01:00:00Z,26.4966,-82.1479,2.03,37.15,1111122 
SCCF RECON,ioos:station:SCCF:12:1,2008-04-04T02:00:00Z,26.4966,-82.1479,2.2,37.11,1111122 
SCCF RECON,ioos:station:SCCF:12:1,2008-04-04T03:00:00Z,26.4966,-82.1479,2.321,37.07,1111122 
SCCF RECON,ioos:station:SCCF:12:1,2008-04-04T04:00:00Z,26.4966,-82.1479,2.39,37.08,1111122 
SCCF RECON,ioos:station:SCCF:12:1,2008-04-04T05:00:00Z,26.4966,-82.1479,2.39,37.08,1111122 
SCCF RECON,ioos:station:SCCF:12:1,2008-04-04T06:00:00Z,26.4966,-82.1479,2.3,37.09,1111122 
SCCF RECON,ioos:station:SCCF:12:1,2008-04-04T07:00:00Z,26.4966,-82.1479,2.187,37.04,1111122 
SCCF RECON,ioos:station:SCCF:12:1,2008-04-04T08:00:00Z,26.4966,-82.1479,2.068,37.03,1111122 
SCCF RECON,ioos:station:SCCF:12:1,2008-04-04T09:00:00Z,26.4966,-82.1479,1.941,37.06,1111122 
SCCF RECON,ioos:station:SCCF:12:1,2008-04-04T10:00:00Z,26.4966,-82.1479,1.84,37.05,1111122 
SCCF RECON,ioos:station:SCCF:12:1,2008-04-04T11:00:00Z,26.4966,-82.1479,1.784,37.04,1111122 
SCCF RECON,ioos:station:SCCF:12:1,2008-04-04T12:00:00Z,26.4966,-82.1479,1.818,37.05,1111122 
SCCF RECON,ioos:station:SCCF:12:1,2008-04-04T13:00:00Z,26.4966,-82.1479,1.98,37.06,1111122 
SCCF RECON,ioos:station:SCCF:12:1,2008-04-04T14:00:00Z,26.4966,-82.1479,2.135,37.08,1111122 
SCCF RECON,ioos:station:SCCF:12:1,2008-04-04T15:00:00Z,26.4966,-82.1479,2.263,37.1,1111122 
SCCF RECON,ioos:station:SCCF:12:1,2008-04-04T16:00:00Z,26.4966,-82.1479,2.352,37.18,1111122 
SCCF RECON,ioos:station:SCCF:12:1,2008-04-04T17:00:00Z,26.4966,-82.1479,2.396,37.16,1111122 
SCCF RECON,ioos:station:SCCF:12:1,2008-04-04T18:00:00Z,26.4966,-82.1479,2.394,37.16,1111122 
SCCF RECON,ioos:station:SCCF:12:1,2008-04-04T19:00:00Z,26.4966,-82.1479,2.31,37.22,1111122 
SCCF RECON,ioos:station:SCCF:12:1,2008-04-04T20:00:00Z,26.4966,-82.1479,2.169,37.28,1111122 
SCCF RECON,ioos:station:SCCF:12:1,2008-04-04T21:00:00Z,26.4966,-82.1479,2.017,37.29,1111122 
SCCF RECON,ioos:station:SCCF:12:1,2008-04-04T22:00:00Z,26.4966,-82.1479,1.904,37.28,1111122 
SCCF RECON,ioos:station:SCCF:12:1,2008-04-04T23:00:00Z,26.4966,-82.1479,1.809,37.27,1111122 
SCCF RECON,ioos:station:SCCF:12:1,2008-04-05T00:00:00Z,26.4966,-82.1479,1.789,37.29,1111122 
SCCF RECON,ioos:station:SCCF:12:1,2008-04-05T01:00:00Z,26.4966,-82.1479,1.906,37.3,1111122 
SCCF RECON,ioos:station:SCCF:12:1,2008-04-05T02:00:00Z,26.4966,-82.1479,2.08,37.29,1111122 
SCCF RECON,ioos:station:SCCF:12:1,2008-04-05T03:00:00Z,26.4966,-82.1479,2.247,37.34,1111122 
SCCF RECON,ioos:station:SCCF:12:1,2008-04-05T04:00:00Z,26.4966,-82.1479,2.37,37.26,1111122 
SCCF RECON,ioos:station:SCCF:12:1,2008-04-05T05:00:00Z,26.4966,-82.1479,2.43,37.3,1111122 
SCCF RECON,ioos:station:SCCF:12:1,2008-04-05T06:00:00Z,26.4966,-82.1479,2.43,37.29,1111122 
SCCF RECON,ioos:station:SCCF:12:1,2008-04-05T07:00:00Z,26.4966,-82.1479,2.35,37.41,1111122 
SCCF RECON,ioos:station:SCCF:12:1,2008-04-05T08:00:00Z,26.4966,-82.1479,2.229,37.42,1111122 
SCCF RECON,ioos:station:SCCF:12:1,2008-04-05T09:00:00Z,26.4966,-82.1479,2.09,37.43,1111122 
SCCF RECON,ioos:station:SCCF:12:1,2008-04-05T10:00:00Z,26.4966,-82.1479,1.99,37.43,1111122 
SCCF RECON,ioos:station:SCCF:12:1,2008-04-05T11:00:00Z,26.4966,-82.1479,1.919,37.43,1111122 
SCCF RECON,ioos:station:SCCF:12:1,2008-04-05T12:00:00Z,26.4966,-82.1479,1.9,37.43,1111122 
SCCF RECON,ioos:station:SCCF:12:1,2008-04-05T13:00:00Z,26.4966,-82.1479,1.99,37.41,1111122 
SCCF RECON,ioos:station:SCCF:12:1,2008-04-05T14:00:00Z,26.4966,-82.1479,2.15,37.39,1111122 
SCCF RECON,ioos:station:SCCF:12:1,2008-04-05T15:00:00Z,26.4966,-82.1479,2.271,37.41,1111122 
SCCF RECON,ioos:station:SCCF:12:1,2008-04-05T16:00:00Z,26.4966,-82.1479,2.369,37.41,1111122 
SCCF RECON,ioos:station:SCCF:12:1,2008-04-05T17:00:00Z,26.4966,-82.1479,2.425,37.42,1111122 
SCCF RECON,ioos:station:SCCF:12:1,2008-04-05T18:00:00Z,26.4966,-82.1479,2.414,37.35,1111122 
SCCF RECON,ioos:station:SCCF:12:1,2008-04-05T19:00:00Z,26.4966,-82.1479,2.347,37.39,1111122 
SCCF RECON,ioos:station:SCCF:12:1,2008-04-05T20:00:00Z,26.4966,-82.1479,2.234,37.42,1111122 
SCCF RECON,ioos:station:SCCF:12:1,2008-04-05T21:00:00Z,26.4966,-82.1479,2.081,37.41,1111122 
SCCF RECON,ioos:station:SCCF:12:1,2008-04-05T22:00:00Z,26.4966,-82.1479,1.938,37.41,1111122 
SCCF RECON,ioos:station:SCCF:12:1,2008-04-05T23:00:00Z,26.4966,-82.1479,1.816,37.42,1111122 
SCCF RECON,ioos:station:SCCF:12:1,2008-04-06T00:00:00Z,26.4966,-82.1479,1.73,37.41,1111122 
SCCF RECON,ioos:station:SCCF:12:1,2008-04-06T01:00:00Z,26.4966,-82.1479,1.719,37.41,1111122 
SCCF RECON,ioos:station:SCCF:12:1,2008-04-06T02:00:00Z,26.4966,-82.1479,1.863,37.41,1111122 
SCCF RECON,ioos:station:SCCF:12:1,2008-04-06T03:00:00Z,26.4966,-82.1479,2.04,37.41,1111122 
SCCF RECON,ioos:station:SCCF:12:1,2008-04-06T04:00:00Z,26.4966,-82.1479,2.31,37.35,1111122 
SCCF RECON,ioos:station:SCCF:12:1,2008-04-06T05:00:00Z,26.4966,-82.1479,2.347,37.27,1111122 
SCCF RECON,ioos:station:SCCF:12:1,2008-04-06T06:00:00Z,26.4966,-82.1479,2.341,37.28,1111122 
SCCF RECON,ioos:station:SCCF:12:1,2008-04-06T07:00:00Z,26.4966,-82.1479,2.226,37.22,1111122 
SCCF RECON,ioos:station:SCCF:12:1,2008-04-06T08:00:00Z,26.4966,-82.1479,2.083,37.2,1111122 
SCCF RECON,ioos:station:SCCF:12:1,2008-04-06T09:00:00Z,26.4966,-82.1479,1.946,37.22,1111122 
SCCF RECON,ioos:station:SCCF:12:1,2008-04-06T10:00:00Z,26.4966,-82.1479,1.916,37.24,1111122 
SCCF RECON,ioos:station:SCCF:12:1,2008-04-06T11:00:00Z,26.4966,-82.1479,1.917,37.26,1111122 
SCCF RECON,ioos:station:SCCF:12:1,2008-04-06T12:00:00Z,26.4966,-82.1479,1.89,37.25,1111122 
SCCF RECON,ioos:station:SCCF:12:1,2008-04-06T13:00:00Z,26.4966,-82.1479,1.89,37.24,1111122 
SCCF RECON,ioos:station:SCCF:12:1,2008-04-06T14:00:00Z,26.4966,-82.1479,1.997,37.21,1111122 
SCCF RECON,ioos:station:SCCF:12:1,2008-04-06T15:00:00Z,26.4966,-82.1479,2.144,37.21,1111122 
SCCF RECON,ioos:station:SCCF:12:1,2008-04-06T16:00:00Z,26.4966,-82.1479,2.299,37.19,1111122 
SCCF RECON,ioos:station:SCCF:12:1,2008-04-06T17:00:00Z,26.4966,-82.1479,2.42,37.25,1111122 
SCCF RECON,ioos:station:SCCF:12:1,2008-04-06T18:00:00Z,26.4966,-82.1479,2.469,37.22,1111122 
SCCF RECON,ioos:station:SCCF:12:1,2008-04-06T19:00:00Z,26.4966,-82.1479,2.421,37.29,1111122 
SCCF RECON,ioos:station:SCCF:12:1,2008-04-06T20:00:00Z,26.4966,-82.1479,2.27,37.24,1111122 
SCCF RECON,ioos:station:SCCF:12:1,2008-04-06T21:00:00Z,26.4966,-82.1479,2.089,37.23,1111122 
SCCF RECON,ioos:station:SCCF:12:1,2008-04-06T22:00:00Z,26.4966,-82.1479,1.939,37.23,1111122 
SCCF RECON,ioos:station:SCCF:12:1,2008-04-06T23:00:00Z,26.4966,-82.1479,1.812,37.26,1111122 
SCCF RECON,ioos:station:SCCF:12:1,2008-04-07T00:00:00Z,26.4966,-82.1479,1.714,37.27,1111122 
SCCF RECON,ioos:station:SCCF:12:1,2008-04-07T01:00:00Z,26.4966,-82.1479,1.63,37.29,1111122 
SCCF RECON,ioos:station:SCCF:12:1,2008-04-07T02:00:00Z,26.4966,-82.1479,1.768,36.97,1111122 
SCCF RECON,ioos:station:SCCF:12:1,2008-04-07T03:00:00Z,26.4966,-82.1479,1.838,36.92,1111122 
SCCF RECON,ioos:station:SCCF:12:1,2008-04-07T04:00:00Z,26.4966,-82.1479,1.939,36.87,1111122 
SCCF RECON,ioos:station:SCCF:12:1,2008-04-07T05:00:00Z,26.4966,-82.1479,2.059,36.84,1111122 
SCCF RECON,ioos:station:SCCF:12:1,2008-04-07T06:00:00Z,26.4966,-82.1479,2.072,36.81,1111122 
SCCF RECON,ioos:station:SCCF:12:1,2008-04-07T07:00:00Z,26.4966,-82.1479,2.11,36.7,1111122 
SCCF RECON,ioos:station:SCCF:12:1,2008-04-07T08:00:00Z,26.4966,-82.1479,2.151,36.84,1111122 
SCCF RECON,ioos:station:SCCF:12:1,2008-04-07T09:00:00Z,26.4966,-82.1479,2.16,36.74,1111122 
SCCF RECON,ioos:station:SCCF:12:1,2008-04-07T10:00:00Z,26.4966,-82.1479,2.1,36.62,1111122 
SCCF RECON,ioos:station:SCCF:12:1,2008-04-07T11:00:00Z,26.4966,-82.1479,2.02,36.69,1111122 
SCCF RECON,ioos:station:SCCF:12:1,2008-04-07T12:00:00Z,26.4966,-82.1479,1.95,36.7,1111122 
SCCF RECON,ioos:station:SCCF:12:1,2008-04-07T13:00:00Z,26.4966,-82.1479,1.89,36.69,1111122 
SCCF RECON,ioos:station:SCCF:12:1,2008-04-07T14:00:00Z,26.4966,-82.1479,1.93,36.73,1111122 
SCCF RECON,ioos:station:SCCF:12:1,2008-04-07T15:00:00Z,26.4966,-82.1479,2.101,36.78,1111122 
SCCF RECON,ioos:station:SCCF:12:1,2008-04-07T16:00:00Z,26.4966,-82.1479,2.3,36.8,1111122 
SCCF RECON,ioos:station:SCCF:12:1,2008-04-07T17:00:00Z,26.4966,-82.1479,2.43,36.77,1111122 
SCCF RECON,ioos:station:SCCF:12:1,2008-04-07T18:00:00Z,26.4966,-82.1479,2.49,36.72,1111122 
SCCF RECON,ioos:station:SCCF:12:1,2008-04-07T19:00:00Z,26.4966,-82.1479,2.45,36.65,1111122 
SCCF RECON,ioos:station:SCCF:12:1,2008-04-07T20:00:00Z,26.4966,-82.1479,2.34,36.66,1111122 
SCCF RECON,ioos:station:SCCF:12:1,2008-04-07T21:00:00Z,26.4966,-82.1479,2.198,36.72,1111122 
SCCF RECON,ioos:station:SCCF:12:1,2008-04-07T22:00:00Z,26.4966,-82.1479,2.04,36.75,1111122 
SCCF RECON,ioos:station:SCCF:12:1,2008-04-07T23:00:00Z,26.4966,-82.1479,1.89,36.67,1111122 
SCCF RECON,ioos:station:SCCF:12:1,2008-04-08T00:00:00Z,26.4966,-82.1479,1.763,36.68,1111122 
SCCF RECON,ioos:station:SCCF:12:1,2008-04-08T01:00:00Z,26.4966,-82.1479,1.646,36.7,1111122 
SCCF RECON,ioos:station:SCCF:12:1,2008-04-08T02:00:00Z,26.4966,-82.1479,1.559,36.75,1111122 
SCCF RECON,ioos:station:SCCF:12:1,2008-04-08T03:00:00Z,26.4966,-82.1479,1.558,36.75,1111122 
SCCF RECON,ioos:station:SCCF:12:1,2008-04-08T04:00:00Z,26.4966,-82.1479,1.724,36.72,1111122 
SCCF RECON,ioos:station:SCCF:12:1,2008-04-08T05:00:00Z,26.4966,-82.1479,1.88,36.69,1111122 
SCCF RECON,ioos:station:SCCF:12:1,2008-04-08T06:00:00Z,26.4966,-82.1479,2.002,36.7,1111122 
SCCF RECON,ioos:station:SCCF:12:1,2008-04-08T07:00:00Z,26.4966,-82.1479,2.127,36.76,1111122 
SCCF RECON,ioos:station:SCCF:12:1,2008-04-08T08:00:00Z,26.4966,-82.1479,2.2,36.79,1111122 
SCCF RECON,ioos:station:SCCF:12:1,2008-04-08T09:00:00Z,26.4966,-82.1479,2.2,36.64,1111122 
SCCF RECON,ioos:station:SCCF:12:1,2008-04-08T10:00:00Z,26.4966,-82.1479,2.113,36.58,1111122 
SCCF RECON,ioos:station:SCCF:12:1,2008-04-08T11:00:00Z,26.4966,-82.1479,1.998,36.58,1111122 
SCCF RECON,ioos:station:SCCF:12:1,2008-04-08T12:00:00Z,26.4966,-82.1479,1.945,36.59,1111122 
SCCF RECON,ioos:station:SCCF:12:1,2008-04-08T13:00:00Z,26.4966,-82.1479,1.99,35.43,1111122 
SCCF RECON,ioos:station:SCCF:12:1,2008-04-08T14:00:00Z,26.4966,-82.1479,2.062,36.62,1111122 
SCCF RECON,ioos:station:SCCF:12:1,2008-04-08T15:00:00Z,26.4966,-82.1479,2.18,36.66,1111122 
SCCF RECON,ioos:station:SCCF:12:1,2008-04-08T16:00:00Z,26.4966,-82.1479,2.322,36.67,1111122 
SCCF RECON,ioos:station:SCCF:12:1,2008-04-08T17:00:00Z,26.4966,-82.1479,2.43,36.62,1111122 
SCCF RECON,ioos:station:SCCF:12:1,2008-04-08T18:00:00Z,26.4966,-82.1479,2.478,36.61,1111122 
SCCF RECON,ioos:station:SCCF:12:1,2008-04-08T19:00:00Z,26.4966,-82.1479,2.483,36.69,1111122 
SCCF RECON,ioos:station:SCCF:12:1,2008-04-08T20:00:00Z,26.4966,-82.1479,2.435,36.7,1111122 
SCCF RECON,ioos:station:SCCF:12:1,2008-04-08T21:00:00Z,26.4966,-82.1479,2.35,36.69,1111122 
SCCF RECON,ioos:station:SCCF:12:1,2008-04-08T22:00:00Z,26.4966,-82.1479,2.21,36.67,1111122 
SCCF RECON,ioos:station:SCCF:12:1,2008-04-08T23:00:00Z,26.4966,-82.1479,2.05,36.66,1111122 
SCCF RECON,ioos:station:SCCF:12:1,2008-04-09T00:00:00Z,26.4966,-82.1479,1.91,36.67,1111122 
SCCF RECON,ioos:station:SCCF:12:1,2008-04-09T01:00:00Z,26.4966,-82.1479,1.782,36.66,1111122 
SCCF RECON,ioos:station:SCCF:12:1,2008-04-09T02:00:00Z,26.4966,-82.1479,1.669,36.66,1111122 
SCCF RECON,ioos:station:SCCF:12:1,2008-04-09T03:00:00Z,26.4966,-82.1479,1.582,36.69,1111122 
SCCF RECON,ioos:station:SCCF:12:1,2008-04-09T04:00:00Z,26.4966,-82.1479,1.6,36.7,1111122 
SCCF RECON,ioos:station:SCCF:12:1,2008-04-09T05:00:00Z,26.4966,-82.1479,1.776,36.69,1111122 
SCCF RECON,ioos:station:SCCF:12:1,2008-04-09T06:00:00Z,26.4966,-82.1479,1.91,36.67,1111122 
SCCF RECON,ioos:station:SCCF:12:1,2008-04-09T07:00:00Z,26.4966,-82.1479,2.018,36.66,1111122 
SCCF RECON,ioos:station:SCCF:12:1,2008-04-09T08:00:00Z,26.4966,-82.1479,2.084,36.74,1111122 
SCCF RECON,ioos:station:SCCF:12:1,2008-04-09T09:00:00Z,26.4966,-82.1479,2.116,36.7,1111122 
SCCF RECON,ioos:station:SCCF:12:1,2008-04-09T10:00:00Z,26.4966,-82.1479,2.1,36.56,1111122 
SCCF RECON,ioos:station:SCCF:12:1,2008-04-09T11:00:00Z,26.4966,-82.1479,2.05,36.54,1111122 
SCCF RECON,ioos:station:SCCF:12:1,2008-04-09T12:00:00Z,26.4966,-82.1479,2.024,36.54,1111122 
SCCF RECON,ioos:station:SCCF:12:1,2008-04-09T13:00:00Z,26.4966,-82.1479,2.01,36.55,1111122 
SCCF RECON,ioos:station:SCCF:12:1,2008-04-09T14:00:00Z,26.4966,-82.1479,2.036,36.55,1111122 
SCCF RECON,ioos:station:SCCF:12:1,2008-04-09T15:00:00Z,26.4966,-82.1479,2.085,36.57,1111122 
SCCF RECON,ioos:station:SCCF:12:1,2008-04-09T16:00:00Z,26.4966,-82.1479,2.17,36.58,1111122 
SCCF RECON,ioos:station:SCCF:12:1,2008-04-09T17:00:00Z,26.4966,-82.1479,2.287,36.65,1111122 
SCCF RECON,ioos:station:SCCF:12:1,2008-04-09T18:00:00Z,26.4966,-82.1479,2.38,36.67,1111122 
SCCF RECON,ioos:station:SCCF:12:1,2008-04-09T19:00:00Z,26.4966,-82.1479,2.432,36.67,1111122 
SCCF RECON,ioos:station:SCCF:12:1,2008-04-09T20:00:00Z,26.4966,-82.1479,2.42,36.65,1111122 
SCCF RECON,ioos:station:SCCF:12:1,2008-04-09T21:00:00Z,26.4966,-82.1479,2.35,36.64,1111122 
SCCF RECON,ioos:station:SCCF:12:1,2008-04-09T22:00:00Z,26.4966,-82.1479,2.255,36.62,1111122 
SCCF RECON,ioos:station:SCCF:12:1,2008-04-09T23:00:00Z,26.4966,-82.1479,2.131,36.61,1111122 
SCCF RECON,ioos:station:SCCF:12:1,2008-04-10T00:00:00Z,26.4966,-82.1479,1.999,36.62,1111122 
SCCF RECON,ioos:station:SCCF:12:1,2008-04-10T01:00:00Z,26.4966,-82.1479,1.869,36.63,1111122 
SCCF RECON,ioos:station:SCCF:12:1,2008-04-10T02:00:00Z,26.4966,-82.1479,1.75,36.63,1111122 
SCCF RECON,ioos:station:SCCF:12:1,2008-04-10T03:00:00Z,26.4966,-82.1479,1.64,36.66,1111122 
SCCF RECON,ioos:station:SCCF:12:1,2008-04-10T04:00:00Z,26.4966,-82.1479,1.582,36.68,1111122 
SCCF RECON,ioos:station:SCCF:12:1,2008-04-10T05:00:00Z,26.4966,-82.1479,1.61,36.69,1111122 
SCCF RECON,ioos:station:SCCF:12:1,2008-04-10T06:00:00Z,26.4966,-82.1479,1.761,36.7,1111122 
SCCF RECON,ioos:station:SCCF:12:1,2008-04-10T07:00:00Z,26.4966,-82.1479,1.878,36.69,1111122 
SCCF RECON,ioos:station:SCCF:12:1,2008-04-10T08:00:00Z,26.4966,-82.1479,1.98,36.67,1111122 
SCCF RECON,ioos:station:SCCF:12:1,2008-04-10T09:00:00Z,26.4966,-82.1479,2.08,36.69,1111122 
SCCF RECON,ioos:station:SCCF:12:1,2008-04-10T10:00:00Z,26.4966,-82.1479,2.15,36.67,1111122 
SCCF RECON,ioos:station:SCCF:12:1,2008-04-10T11:00:00Z,26.4966,-82.1479,2.17,36.65,1111122 
SCCF RECON,ioos:station:SCCF:12:1,2008-04-10T12:00:00Z,26.4966,-82.1479,2.16,36.62,1111122 
SCCF RECON,ioos:station:SCCF:12:1,2008-04-10T13:00:00Z,26.4966,-82.1479,2.16,36.59,1111122 
SCCF RECON,ioos:station:SCCF:12:1,2008-04-10T14:00:00Z,26.4966,-82.1479,2.189,36.57,1111122 
SCCF RECON,ioos:station:SCCF:12:1,2008-04-10T15:00:00Z,26.4966,-82.1479,2.24,36.56,1111122 
SCCF RECON,ioos:station:SCCF:12:1,2008-04-10T16:00:00Z,26.4966,-82.1479,2.299,36.57,1111122 
SCCF RECON,ioos:station:SCCF:12:1,2008-04-10T17:00:00Z,26.4966,-82.1479,2.366,36.58,1111122 
SCCF RECON,ioos:station:SCCF:12:1,2008-04-10T18:00:00Z,26.4966,-82.1479,2.434,36.63,1111122 
SCCF RECON,ioos:station:SCCF:12:1,2008-04-10T19:00:00Z,26.4966,-82.1479,2.49,36.66,1111122 
SCCF RECON,ioos:station:SCCF:12:1,2008-04-10T20:00:00Z,26.4966,-82.1479,2.49,36.67,1111122 
SCCF RECON,ioos:station:SCCF:12:1,2008-04-10T21:00:00Z,26.4966,-82.1479,2.452,36.59,1111122 
SCCF RECON,ioos:station:SCCF:12:1,2008-04-10T22:00:00Z,26.4966,-82.1479,2.38,36.63,1111122 
SCCF RECON,ioos:station:SCCF:12:1,2008-04-10T23:00:00Z,26.4966,-82.1479,2.284,36.62,1111122 
SCCF RECON,ioos:station:SCCF:12:1,2008-04-11T00:00:00Z,26.4966,-82.1479,2.16,36.6,1111122 
SCCF RECON,ioos:station:SCCF:12:1,2008-04-11T01:00:00Z,26.4966,-82.1479,2.035,36.61,1111122 
SCCF RECON,ioos:station:SCCF:12:1,2008-04-11T02:00:00Z,26.4966,-82.1479,1.918,36.63,1111122 
SCCF RECON,ioos:station:SCCF:12:1,2008-04-11T03:00:00Z,26.4966,-82.1479,1.807,36.64,1111122 
SCCF RECON,ioos:station:SCCF:12:1,2008-04-11T04:00:00Z,26.4966,-82.1479,1.703,36.67,1111122 
SCCF RECON,ioos:station:SCCF:12:1,2008-04-11T05:00:00Z,26.4966,-82.1479,1.636,36.67,1111122 
SCCF RECON,ioos:station:SCCF:12:1,2008-04-11T06:00:00Z,26.4966,-82.1479,1.667,36.68,1111122 
SCCF RECON,ioos:station:SCCF:12:1,2008-04-11T07:00:00Z,26.4966,-82.1479,1.786,36.66,1111122 
SCCF RECON,ioos:station:SCCF:12:1,2008-04-11T08:00:00Z,26.4966,-82.1479,1.887,36.66,1111122 
SCCF RECON,ioos:station:SCCF:12:1,2008-04-11T09:00:00Z,26.4966,-82.1479,1.971,36.68,1111122 
SCCF RECON,ioos:station:SCCF:12:1,2008-04-11T10:00:00Z,26.4966,-82.1479,2.06,36.67,1111122 
SCCF RECON,ioos:station:SCCF:12:1,2008-04-11T11:00:00Z,26.4966,-82.1479,2.138,36.62,1111122 
SCCF RECON,ioos:station:SCCF:12:1,2008-04-11T12:00:00Z,26.4966,-82.1479,2.19,36.58,1111122 
SCCF RECON,ioos:station:SCCF:12:1,2008-04-11T13:00:00Z,26.4966,-82.1479,2.212,36.56,1111122 
SCCF RECON,ioos:station:SCCF:12:1,2008-04-11T14:00:00Z,26.4966,-82.1479,2.21,36.56,1111122 
SCCF RECON,ioos:station:SCCF:12:1,2008-04-11T15:00:00Z,26.4966,-82.1479,2.198,36.56,1111122 
SCCF RECON,ioos:station:SCCF:12:1,2008-04-11T16:00:00Z,26.4966,-82.1479,2.226,36.55,1111122 
SCCF RECON,ioos:station:SCCF:12:1,2008-04-11T17:00:00Z,26.4966,-82.1479,2.289,36.55,1111122 
SCCF RECON,ioos:station:SCCF:12:1,2008-04-11T18:00:00Z,26.4966,-82.1479,2.35,36.55,1111122 
SCCF RECON,ioos:station:SCCF:12:1,2008-04-11T19:00:00Z,26.4966,-82.1479,2.412,36.57,1111122 
SCCF RECON,ioos:station:SCCF:12:1,2008-04-11T20:00:00Z,26.4966,-82.1479,2.451,36.57,1111122 
SCCF RECON,ioos:station:SCCF:12:1,2008-04-11T21:00:00Z,26.4966,-82.1479,2.459,36.58,1111122 
SCCF RECON,ioos:station:SCCF:12:1,2008-04-11T22:00:00Z,26.4966,-82.1479,2.421,36.57,1111122 
SCCF RECON,ioos:station:SCCF:12:1,2008-04-11T23:00:00Z,26.4966,-82.1479,2.35,36.56,1111122 
SCCF RECON,ioos:station:SCCF:12:1,2008-04-12T00:00:00Z,26.4966,-82.1479,2.26,36.55,1111122 
SCCF RECON,ioos:station:SCCF:12:1,2008-04-12T01:00:00Z,26.4966,-82.1479,2.165,36.54,1111122 
SCCF RECON,ioos:station:SCCF:12:1,2008-04-12T02:00:00Z,26.4966,-82.1479,2.06,36.56,1111122 
SCCF RECON,ioos:station:SCCF:12:1,2008-04-12T03:00:00Z,26.4966,-82.1479,1.96,36.57,1111122 
SCCF RECON,ioos:station:SCCF:12:1,2008-04-12T04:00:00Z,26.4966,-82.1479,1.84,36.59,1111122 
SCCF RECON,ioos:station:SCCF:12:1,2008-04-12T05:00:00Z,26.4966,-82.1479,1.75,36.59,1111122 
SCCF RECON,ioos:station:SCCF:12:1,2008-04-12T06:00:00Z,26.4966,-82.1479,1.69,36.61,1111122 
SCCF RECON,ioos:station:SCCF:12:1,2008-04-12T07:00:00Z,26.4966,-82.1479,1.71,36.65,1111122 
SCCF RECON,ioos:station:SCCF:12:1,2008-04-12T08:00:00Z,26.4966,-82.1479,1.831,36.65,1111122 
SCCF RECON,ioos:station:SCCF:12:1,2008-04-12T09:00:00Z,26.4966,-82.1479,1.945,36.64,1111122 
SCCF RECON,ioos:station:SCCF:12:1,2008-04-12T10:00:00Z,26.4966,-82.1479,2.03,36.58,1111122 
SCCF RECON,ioos:station:SCCF:12:1,2008-04-12T11:00:00Z,26.4966,-82.1479,2.108,36.61,1111122 
SCCF RECON,ioos:station:SCCF:12:1,2008-04-12T12:00:00Z,26.4966,-82.1479,2.16,36.6,1111122 
SCCF RECON,ioos:station:SCCF:12:1,2008-04-12T13:00:00Z,26.4966,-82.1479,2.208,36.58,1111122 
SCCF RECON,ioos:station:SCCF:12:1,2008-04-12T14:00:00Z,26.4966,-82.1479,2.255,36.52,1111122 
SCCF RECON,ioos:station:SCCF:12:1,2008-04-12T15:00:00Z,26.4966,-82.1479,2.288,36.48,1111122 
SCCF RECON,ioos:station:SCCF:12:1,2008-04-12T16:00:00Z,26.4966,-82.1479,2.269,36.48,1111122 
SCCF RECON,ioos:station:SCCF:12:1,2008-04-12T17:00:00Z,26.4966,-82.1479,2.226,36.48,1111122 
SCCF RECON,ioos:station:SCCF:12:1,2008-04-12T18:00:00Z,26.4966,-82.1479,2.227,36.49,1111122 
SCCF RECON,ioos:station:SCCF:12:1,2008-04-12T19:00:00Z,26.4966,-82.1479,2.276,36.5,1111122 
SCCF RECON,ioos:station:SCCF:12:1,2008-04-12T20:00:00Z,26.4966,-82.1479,2.338,36.51,1111122 
SCCF RECON,ioos:station:SCCF:12:1,2008-04-12T21:00:00Z,26.4966,-82.1479,2.381,36.51,1111122 
SCCF RECON,ioos:station:SCCF:12:1,2008-04-12T22:00:00Z,26.4966,-82.1479,2.41,36.52,1111122 
SCCF RECON,ioos:station:SCCF:12:1,2008-04-12T23:00:00Z,26.4966,-82.1479,2.41,36.53,1111122 
SCCF RECON,ioos:station:SCCF:12:1,2008-04-13T00:00:00Z,26.4966,-82.1479,2.37,36.52,1111122 
SCCF RECON,ioos:station:SCCF:12:1,2008-04-13T01:00:00Z,26.4966,-82.1479,2.31,36.54,1111122 
SCCF RECON,ioos:station:SCCF:12:1,2008-04-13T02:00:00Z,26.4966,-82.1479,2.228,36.52,1111122 
SCCF RECON,ioos:station:SCCF:12:1,2008-04-13T03:00:00Z,26.4966,-82.1479,2.13,36.49,1111122 
SCCF RECON,ioos:station:SCCF:12:1,2008-04-13T04:00:00Z,26.4966,-82.1479,2.02,36.47,1111122 
SCCF RECON,ioos:station:SCCF:12:1,2008-04-13T05:00:00Z,26.4966,-82.1479,1.91,36.49,1111122 
SCCF RECON,ioos:station:SCCF:12:1,2008-04-13T06:00:00Z,26.4966,-82.1479,1.814,36.6,1111122 
SCCF RECON,ioos:station:SCCF:12:1,2008-04-13T07:00:00Z,26.4966,-82.1479,1.75,36.53,1111122 
SCCF RECON,ioos:station:SCCF:12:1,2008-04-13T08:00:00Z,26.4966,-82.1479,1.76,36.55,1111122 
SCCF RECON,ioos:station:SCCF:12:1,2008-04-13T09:00:00Z,26.4966,-82.1479,1.86,36.56,1111122 
SCCF RECON,ioos:station:SCCF:12:1,2008-04-13T10:00:00Z,26.4966,-82.1479,1.97,36.56,1111122 
SCCF RECON,ioos:station:SCCF:12:1,2008-04-13T11:00:00Z,26.4966,-82.1479,2.08,36.54,1111122 
SCCF RECON,ioos:station:SCCF:12:1,2008-04-13T12:00:00Z,26.4966,-82.1479,2.16,36.54,1111122 
SCCF RECON,ioos:station:SCCF:12:1,2008-04-13T13:00:00Z,26.4966,-82.1479,2.23,36.54,1111122 
SCCF RECON,ioos:station:SCCF:12:1,2008-04-13T14:00:00Z,26.4966,-82.1479,2.273,36.59,1111122 
SCCF RECON,ioos:station:SCCF:12:1,2008-04-13T15:00:00Z,26.4966,-82.1479,2.288,36.57,1111122 
SCCF RECON,ioos:station:SCCF:12:1,2008-04-13T16:00:00Z,26.4966,-82.1479,2.28,36.58,1111122 
SCCF RECON,ioos:station:SCCF:12:1,2008-04-13T17:00:00Z,26.4966,-82.1479,2.225,36.57,1111122 
SCCF RECON,ioos:station:SCCF:12:1,2008-04-13T18:00:00Z,26.4966,-82.1479,2.212,36.57,1111122 
SCCF RECON,ioos:station:SCCF:12:1,2008-04-13T19:00:00Z,26.4966,-82.1479,2.183,36.59,1111122 
SCCF RECON,ioos:station:SCCF:12:1,2008-04-13T20:00:00Z,26.4966,-82.1479,2.146,36.6,1111122 
SCCF RECON,ioos:station:SCCF:12:1,2008-04-13T21:00:00Z,26.4966,-82.1479,2.163,36.58,1111122 
SCCF RECON,ioos:station:SCCF:12:1,2008-04-13T22:00:00Z,26.4966,-82.1479,2.187,36.61,1111122 
SCCF RECON,ioos:station:SCCF:12:1,2008-04-13T23:00:00Z,26.4966,-82.1479,2.189,36.72,1111122 
SCCF RECON,ioos:station:SCCF:12:1,2008-04-14T00:00:00Z,26.4966,-82.1479,2.232,36.77,1111122 
SCCF RECON,ioos:station:SCCF:12:1,2008-04-14T01:00:00Z,26.4966,-82.1479,2.255,36.83,1111122 
SCCF RECON,ioos:station:SCCF:12:1,2008-04-14T02:00:00Z,26.4966,-82.1479,2.239,36.85,1111122 
SCCF RECON,ioos:station:SCCF:12:1,2008-04-14T03:00:00Z,26.4966,-82.1479,2.158,36.86,1111122 
SCCF RECON,ioos:station:SCCF:12:1,2008-04-14T04:00:00Z,26.4966,-82.1479,2.058,36.87,1111122 
SCCF RECON,ioos:station:SCCF:12:1,2008-04-14T05:00:00Z,26.4966,-82.1479,1.968,36.9,1111122 
SCCF RECON,ioos:station:SCCF:12:1,2008-04-14T06:00:00Z,26.4966,-82.1479,1.867,36.96,1111122 
SCCF RECON,ioos:station:SCCF:12:1,2008-04-14T07:00:00Z,26.4966,-82.1479,1.766,37.06,1111122 
SCCF RECON,ioos:station:SCCF:12:1,2008-04-14T08:00:00Z,26.4966,-82.1479,1.713,36.94,1111122 
SCCF RECON,ioos:station:SCCF:12:1,2008-04-14T09:00:00Z,26.4966,-82.1479,1.718,37.0,1111122 
SCCF RECON,ioos:station:SCCF:12:1,2008-04-14T10:00:00Z,26.4966,-82.1479,1.774,37.01,1111122 